Location: Pettit
(39.0209°N, 79.7181°W)
Time: 10:41:10
(UTC+00:00)

Hubble Space Telescope - Visible Passes

Search period start: 18 April 2026 00:00
Search period end: 28 April 2026 00:00
Orbit: 474 x 477 km, 28.5° (Epoch: 17 April)

Date Brightness Start Highest point End Pass type
(mag) Time Alt. Az. Time Alt. Az. Time Alt. Az.
25 Apr 2.9 01:50:13 10° SSW 01:50:46 12° SSW 01:50:46 12° SSW visible
26 Apr 2.4 01:18:59 10° SSW 01:21:15 15° S 01:21:30 15° S visible
27 Apr 2.5 00:47:45 10° SSW 00:50:00 15° S 00:52:09 10° SE visible
